Regional Weather Roundup
Issued by NWS Kansas City/Pleasant Hill, MO

Home | Current Version | Previous Version | Text Only | Print | Product List | Glossary On
Versions: 1 2 3 4 5 6 7 8 9 10 11 12 13 14 15 16 17 18 19 20 21 22 23 24 25 26 27 28 29 30 31 32 33 34 35 36 37 38 39 40 41 42 43 44 45 46 47 48 49 50
109
ASUS43 KEAX 131810
RWREAX

WEATHER ROUNDUP FOR EASTERN KANSAS AND NORTHWEST MISSOURI
NATIONAL WEATHER SERVICE KANSAS CITY/PLEASANT HILL MO
1200 PM CST SAT FEB 13 2016

KSZ040-057-103>105-MOZ028-029-037-043-131900-
...KANSAS CITY METROPOLITAN AREA...

CITY           SKY/WX    TMP DP  RH WIND       PRES   REMARKS
K.C. INTL      CLOUDY    18   2  49 E10       30.54F WCI   6
6HR MIN TEMP:  15; 6HR MAX TEMP:  19;

K.C. DOWNTOWN  CLOUDY    20   2  45 E8        30.56F WCI  10
6HR MIN TEMP:  17; 6HR MAX TEMP:  20;

LEES SUMMIT    CLOUDY    19   2  47 E9        30.54F WCI   8
6HR MIN TEMP:  15; 6HR MAX TEMP:  19;

OLATHE - IXD   CLOUDY    20   2  45 E13       30.53F WCI   7
6HR MIN TEMP:  17; 6HR MAX TEMP:  20;

OLATHE - OJC   CLOUDY    19   2  47 E9        30.52F WCI   8
6HR MIN TEMP:  16; 6HR MAX TEMP:  19;

LAWRENCE       CLOUDY    21   1  41 SE12      30.54F WCI   9

$$

MOZ001>008-011>017-020>025-030>033-038>040-044>046-053-054-131900-
...NORTHERN AND CENTRAL MISSOURI...

CITY           SKY/WX    TMP DP  RH WIND       PRES   REMARKS
ST. JOSEPH     CLOUDY    18   2  49 E9        30.58F WCI   7
6HR MIN TEMP:  14; 6HR MAX TEMP:  18;

MOSBY          CLOUDY    19   3  49 E10       30.59F WCI   8
WARRENSBURG    CLOUDY    19   5  53 E9        30.57F WCI   9
WHITEMAN AFB   CLOUDY    19   2  47 E7        30.56F WCI  10
6HR MIN TEMP:  15; 6HR MAX TEMP:  19;

CLINTON          N/A     25   5  42 NE9       30.57F WCI  15
SEDALIA        CLOUDY    20   1  43 E9        30.60F WCI   9
6HR MIN TEMP:  15; 6HR MAX TEMP:  20;

WARSAW         NOT AVBL
CHILLICOTHE      N/A     16   0  49 E6        30.62F WCI   7
6HR MIN TEMP:  11; 6HR MAX TEMP:  16;

KIRKSVILLE     CLOUDY    14  -2  49 NE3       30.60F
6HR MIN TEMP:   6; 6HR MAX TEMP:  14;


$$

MOZ041-047>049-056>058-063>065-088>090-097-131900-
...EASTERN AND SOUTHERN MISSOURI...

CITY           SKY/WX    TMP DP  RH WIND       PRES   REMARKS
ST. LOUIS INTL MOSUNNY   20  -3  36 CALM      30.63F
6HR MIN TEMP:  11; 6HR MAX TEMP:  21;

SPIRIT OF STL  PTSUNNY   20   1  43 CALM      30.64F
COLUMBIA       CLOUDY    17   0  47 NE5       30.60F WCI  10
JEFFERSON CITY CLOUDY    18   0  45 CALM      30.63F
ROLLA          CLOUDY    18   1  47 N5        30.55F WCI  11
OSAGE BEACH    CLOUDY    19   1  45 E8        30.57F WCI   9
SPRINGFIELD    MOSUNNY   32   0  25 SE10      30.48F WCI  24
BRANSON        MOSUNNY   32   3  29 SE10G17   30.50F WCI  24
JOPLIN         SUNNY     35   4  27 E9        30.48F WCI  28
WEST PLAINS    SUNNY     29  -4  24 SE6       30.52F WCI  23

$$

IAZ060-094-KSZ022-034>040-054-083-096-NEZ052-066-093-131900-
...KANSAS...SOUTHEAST NEBRASKA AND IOWA...

CITY           SKY/WX    TMP DP  RH WIND       PRES   REMARKS
TOPEKA         CLOUDY    24   1  36 E13       30.52F WCI  12
6HR MIN TEMP:  20; 6HR MAX TEMP:  24;

MANHATTAN      CLOUDY    25   2  37 E10       30.47F WCI  15
EMPORIA        MOSUNNY   28   2  32 E14       30.45F WCI  17
CHANUTE        SUNNY     34   4  28 E10       30.48F WCI  26
WICHITA        PTSUNNY   35   1  23 SE10      30.40F WCI  27
OMAHA          CLOUDY    14   3  61 SE9       30.54F WCI   2
LINCOLN        CLOUDY    18   5  57 SE10      30.49F WCI   6
FALLS CITY     CLOUDY    18   2  49 SE10      30.53F WCI   6
LAMONI         CLOUDY    13  -1  54 VRB5      30.55F WCI   5
DES MOINES     CLOUDY    10  -4  53 S8        30.59F WCI  -2

$$





USA.gov is the U.S. government's official web portal to all federal, state and local government web resources and services.